Tracking 19254 objects as of 21-Oct-2018
HD Live streaming from Space Station
objects crossing your sky now

CXBN-2

Track CXBN-2 now!
10-day predictions
CXBN-2 is classified as:


NORAD ID: 42704
Int'l Code: 1998-067LM
Perigee: 336.3 km
Apogee: 340.4 km
Inclination: 51.6 °
Period: 91.2 minutes
Semi major axis: 6709 km
RCS: Unknown
Launch date: November 20, 1998
Source: United States (US)
Launch site: TYURATAM MISSILE AND SPACE COMPLEX (TTMTR)

Uplink (MHz):
Downlink (MHz): 437.075
Beacon (MHz):
Mode: 9600bps FSK
Call sign:
Status: Unknown

aabbcc
Your satellite tracking list
Your tracking list is empty




NASA's NSSDC Master Catalog

Two Line Element Set (TLE):
1 42704U 98067LM  18294.41017029  .00048582  00000-0  26101-3 0  9995
2 42704  51.6314  67.0910 0003073 307.4633  52.6088 15.79735591 81810
Source of the keplerian elements: AFSPC